Location: G�yn�k
(36.6721°N, 30.5542°E)
Time: 21:11:36
(UTC+00:00)

BREEZE-M DEB (TANK) - Pass Details

Date: 08 October 2020
Orbit: 333 x 12040 km, 49.7° (Epoch: 26 October)

Event Time Altitude Azimuth Distance (km) Brightness Sun altitude
Rises 02:23:25 0° 216° (SW) 13,547 8.8 -20.0°
Reaches altitude 10° 02:33:49 10° 216° (SW) 13,720 8.8 -17.9°
Maximum altitude 04:15:30 86° 317° (NW) 9,157 8.3 2.4°
Drops below altitude 10° 04:51:52 10° 56° (NE) 6,861 8.4 9.5°
Sets 04:55:05 0° 58° (ENE) 7,145 8.4 10.1°
